Tracking 20383 objects as of 23-Feb-2020
HD Live streaming from Space Station
objects crossing your sky now
Track the group of recently launched Starlink satellites

METEOR 2-17 DEB

Track METEOR 2-17 DEB now!
10-day predictions


NORAD ID: 28991
Int'l Code: 1988-005F
Perigee: 906.3 km
Apogee: 919.9 km
Inclination: 82.5 °
Period: 103.1 minutes
Semi major axis: 7284 km
RCS: 0.0099 m2 (small)
Launch date: January 30, 1988
Source: Commonwealth of Independent States (former USSR) (CIS)
Launch site: PLESETSK MISSILE AND SPACE COMPLEX (PKMTR)

Note: This is SATELLITE DEBRIS
aabbcc
Your satellite tracking list
Your tracking list is empty




NASA's NSSDC Master Catalog

Two Line Element Set (TLE):
1 28991U 88005F   20051.18235689 +.00000600 +00000-0 +42345-3 0  9997
2 28991 082.5330 313.5888 0009350 010.9227 143.7113 13.96500513742585
Source of the keplerian elements: AFSPC